Location: Peterborough
(44.3091°N, 78.3197°W)
Time: 03:54:56
(UTC-04:00)

Tiros 1 despin weight - Pass Details

Date: 30 March 2023
Orbit: 586 x 632 km, 48.2° (Epoch: 08 June)

Event Time Altitude Azimuth Distance (km) Brightness Sun altitude
Rises 00:30:18 0° 290° (WNW) 2,819 - -40.9°
Reaches altitude 10° 00:32:35 10° 293° (WNW) 1,922 - -41.0°
Maximum altitude 00:36:59 71° 17° (NNE) 633 - -41.2°
Drops below altitude 10° 00:41:25 10° 102° (ESE) 1,943 - -41.3°
Sets 00:43:45 0° 105° (ESE) 2,853 - -41.4°
